Location: Burleson Alternative School
(32.5290°N, 97.3406°W)
Time: 02:42:49
(UTC+00:00)

Courier 1B Rocket - Pass Details

Date: 13 November 2024
Orbit: 920 x 1201 km, 28.2° (Epoch: 03 December)

Event Time Altitude Azimuth Distance (km) Brightness Sun altitude
Rises 23:45:19 0° 262° (W) 3,711 10.3 -4.0°
Reaches altitude 10° 23:48:05 10° 259° (WSW) 2,723 9.2 -4.5°
Maximum altitude 23:54:30 60° 181° (S) 1,065 5.4 -5.8°
Drops below altitude 10° 00:00:39 10° 102° (ESE) 2,609 6.7 -7.1°
Enters shadow 00:01:56 - 100° (E) 3,069 7.1 -7.3°
